Location: Chinatown
(37.7966°N, 122.4086°W)
Time: 20:41:53
(UTC+00:00)

ACS3 Solar Sail - Visible Passes

Search period start: 04 October 2024 00:00
Search period end: 14 October 2024 00:00
Orbit: 963 x 1036 km, 97.4° (Epoch: 04 October)

Date Brightness Start Highest point End Pass type
(mag) Time Alt. Az. Time Alt. Az. Time Alt. Az.
04 Oct 2.1 03:43:04 46° E 03:43:58 50° ENE 03:50:05 10° N visible
04 Oct 3.7 05:28:14 25° W 05:28:14 25° W 05:33:12 10° NW visible
05 Oct 3.5 02:30:24 11° E 02:32:52 14° ENE 02:35:52 10° NNE visible
05 Oct 1.7 04:15:34 82° SSE 04:15:53 89° ENE 04:22:17 10° NNW visible
05 Oct 4.4 06:00:45 12° W 06:00:45 12° W 06:03:00 10° WNW visible
06 Oct 2.9 03:02:55 23° E 03:04:24 25° ENE 03:09:25 10° NNE visible
06 Oct 2.5 04:48:06 50° W 04:48:06 50° W 04:54:08 10° NNW visible
07 Oct 2.1 03:35:26 43° E 03:36:08 45° ENE 03:42:07 10° N visible
07 Oct 3.6 05:20:37 27° W 05:20:37 27° W 05:25:28 10° NW visible
08 Oct 3.5 02:22:45 10° E 02:25:05 12° ENE 02:27:27 10° NE visible
08 Oct 1.7 04:07:57 81° E 04:08:01 81° ENE 04:14:23 10° N visible
08 Oct 4.3 05:53:07 14° W 05:53:07 14° W 05:55:41 10° WNW visible
09 Oct 2.9 02:55:17 21° E 02:56:36 23° ENE 03:01:20 10° NNE visible
09 Oct 2.4 04:40:27 55° W 04:40:27 55° W 04:46:17 10° NNW visible
10 Oct 2.2 03:27:47 40° E 03:28:17 41° ENE 03:34:08 10° N visible
10 Oct 3.5 05:12:58 29° W 05:12:58 29° W 05:17:43 10° NW visible
11 Oct 3.6 02:15:47 10° ENE 02:17:17 11° ENE 02:18:46 10° NE visible
11 Oct 1.7 04:00:18 74° ENE 04:00:18 74° ENE 04:06:27 10° N visible
11 Oct 4.3 05:45:29 15° W 05:45:29 15° W 05:48:13 10° NW visible
12 Oct 3.0 02:47:38 20° ENE 02:48:45 21° ENE 02:53:14 10° NNE visible
12 Oct 2.3 04:32:49 58° WNW 04:32:49 58° WNW 04:38:24 10° NNW visible
13 Oct 2.3 03:20:08 37° ENE 03:20:25 37° ENE 03:26:07 10° N visible
13 Oct 3.4 05:05:19 31° WNW 05:05:19 31° WNW 05:09:56 10° NNW visible
